N2WH Weather Reports


time (UTC)temp
C
wind
direction
speed
KPH
gust
KPH
rain 1hr
cm
rain 24hr
cm
rain mn
cm
humidity
%
barometer
mb
20260504033151 8 148 0.0 0.0 0.00 0.00 0.00 56 1013.5
20260504032647 8 140 0.0 0.0 0.00 0.00 0.00 58 1013.3
20260504032145 8 138 0.0 0.0 0.00 0.00 0.00 59 1013.4
20260504031642 8 141 0.0 0.0 0.00 0.00 0.00 57 1013.3
20260504031138 8 150 0.0 0.0 0.00 0.00 0.00 55 1013.3
20260504030635 7 147 0.0 0.0 0.00 0.00 0.00 57 1013.2
20260504030132 7 134 0.0 0.0 0.00 0.00 0.00 59 1013.2
20260504025628 7 134 0.0 0.0 0.00 0.00 0.00 60 1013.2
20260504025125 7 134 0.0 0.0 0.00 0.00 0.00 61 1013.3
20260504024622 7 133 0.0 0.0 0.00 0.00 0.00 60 1013.3
20260504024119 8 133 0.0 0.0 0.00 0.00 0.00 58 1013.2
20260504023616 8 134 0.0 0.0 0.00 0.00 0.00 57 1013.2
20260504023111 8 138 0.0 0.0 0.00 0.00 0.00 57 1013.4
20260504022608 8 138 0.0 0.0 0.00 0.00 0.00 57 1013.2
20260504022104 8 141 0.0 0.0 0.00 0.00 0.00 55 1013.3
20260504021602 8 127 0.0 0.0 0.00 0.00 0.00 55 1013.5
20260504021058 8 127 0.0 0.0 0.00 0.00 0.00 55 1013.6
20260504020555 8 127 0.0 0.0 0.00 0.00 0.00 55 1013.5
20260504020051 8 127 0.0 0.0 0.00 0.00 0.00 54 1013.4
20260504015548 8 127 0.0 0.0 0.00 0.00 0.00 53 1013.2
20260504015044 8 127 0.0 0.0 0.00 0.00 0.00 52 1013.3
20260504014540 8 127 0.0 0.0 0.00 0.00 0.00 51 1013.2
20260504014038 8 127 0.0 0.0 0.00 0.00 0.00 50 1013.1
20260504013535 8 127 0.0 0.0 0.00 0.00 0.00 49 1013.3
20260504013032 9 127 0.0 0.0 0.00 0.00 0.00 50 1013.1
20260504012530 9 127 0.0 0.0 0.00 0.00 0.00 51 1013.3
20260504012028 9 126 0.0 0.0 0.00 0.00 0.00 48 1013.1
20260504011524 10 127 0.0 0.0 0.00 0.00 0.00 48 1013.0
20260504011020 9 128 0.0 0.0 0.00 0.00 0.00 50 1013.0
20260504010516 10 128 0.0 0.0 0.00 0.00 0.00 52 1012.9
20260504010012 10 127 0.0 0.0 0.00 0.00 0.00 50 1012.4
20260504005509 9 124 0.0 0.0 0.00 0.00 0.00 50 1012.6
20260504005007 10 129 0.0 0.0 0.00 0.00 0.00 50 1012.7
20260504004504 10 129 0.0 0.0 0.00 0.00 0.00 49 1012.5
20260504004001 10 128 0.0 0.0 0.00 0.00 0.00 49 1012.5
20260504003457 10 128 0.0 0.0 0.00 0.00 0.00 47 1012.4
20260504002954 11 134 0.0 0.0 0.00 0.00 0.00 46 1012.3
20260504002451 11 138 0.0 0.0 0.00 0.00 0.00 43 1012.5
20260504001948 11 138 0.0 0.0 0.00 0.00 0.00 43 1012.3
20260504001446 11 138 0.0 0.0 0.00 0.00 0.00 43 1012.2
20260504000942 12 138 0.0 0.0 0.00 0.00 0.00 43 1012.3
20260504000439 12 138 0.0 0.0 0.00 0.00 0.00 41 1012.0
20260503235936 12 141 0.0 0.0 0.00 0.00 0.00 41 1012.0
20260503235434 12 149 0.0 0.0 0.00 0.00 0.00 39 1012.0
20260503234931 12 152 0.0 0.0 0.00 0.00 0.00 39 1011.8
20260503234429 13 121 0.0 0.0 0.00 0.00 0.00 38 1011.6
20260503233927 13 139 0.0 0.0 0.00 0.00 0.00 37 1011.9
20260503233423 13 165 0.0 1.6 0.00 0.00 0.00 36 1011.8
20260503232920 13 135 1.6 1.6 0.00 0.00 0.00 36 1011.7
20260503232417 13 161 1.6 1.6 0.00 0.00 0.00 36 1011.7
20260503231914 13 141 0.0 0.0 0.00 0.00 0.00 37 1011.6
20260503231412 13 144 0.0 0.0 0.00 0.00 0.00 36 1011.6
20260503230908 13 136 1.6 1.6 0.00 0.00 0.00 35 1011.4
20260503230404 13 142 1.6 1.6 0.00 0.00 0.00 35 1011.4
20260503225902 13 148 1.6 1.6 0.00 0.00 0.00 35 1011.3
20260503225358 13 154 0.0 1.6 0.00 0.00 0.00 35 1011.3
20260503224854 13 321 1.6 3.2 0.00 0.00 0.00 34 1011.4
20260503224351 13 149 1.6 1.6 0.00 0.00 0.00 33 1011.5
20260503223849 14 141 1.6 1.6 0.00 0.00 0.00 34 1011.2
20260503223347 14 138 0.0 1.6 0.00 0.00 0.00 33 1011.4
20260503222842 14 131 0.0 1.6 0.00 0.00 0.00 34 1011.2
20260503222341 14 137 0.0 0.0 0.00 0.00 0.00 33 1011.3
20260503221838 14 138 1.6 3.2 0.00 0.00 0.00 32 1011.3
20260503221337 14 186 1.6 1.6 0.00 0.00 0.00 32 1011.3
20260503220832 14 140 0.0 1.6 0.00 0.00 0.00 33 1011.3
20260503220330 13 104 1.6 1.6 0.00 0.00 0.00 33 1011.5
20260503215827 14 142 4.8 8.0 0.00 0.00 0.00 33 1011.4
20260503215324 14 146 1.6 1.6 0.00 0.00 0.00 32 1011.2
20260503214821 14 174 1.6 3.2 0.00 0.00 0.00 32 1011.3
20260503214318 14 181 1.6 1.6 0.00 0.00 0.00 33 1011.5
20260503213816 14 145 3.2 4.8 0.00 0.00 0.00 31 1011.3
20260503213314 13 136 0.0 1.6 0.00 0.00 0.00 33 1011.2
20260503212810 14 188 3.2 3.2 0.00 0.00 0.00 31 1011.2
20260503212308 14 182 1.6 1.6 0.00 0.00 0.00 31 1011.4
20260503211805 14 154 1.6 3.2 0.00 0.00 0.00 31 1011.3
20260503211302 14 118 3.2 4.8 0.00 0.00 0.00 30 1011.3
20260503210801 14 181 1.6 1.6 0.00 0.00 0.00 31 1011.3
20260503210300 14 139 1.6 3.2 0.00 0.00 0.00 32 1011.1
20260503205754 14 136 1.6 1.6 0.00 0.00 0.00 31 1011.1
20260503205251 14 210 1.6 3.2 0.00 0.00 0.00 32 1011.1
20260503204747 15 182 3.2 3.2 0.00 0.00 0.00 30 1011.0
20260503204245 15 192 3.2 3.2 0.00 0.00 0.00 30 1011.1
20260503203742 15 121 0.0 1.6 0.00 0.00 0.00 30 1011.4
20260503203240 15 47 3.2 3.2 0.00 0.00 0.00 32 1011.4
20260503202737 14 205 3.2 3.2 0.00 0.00 0.00 32 1011.4
20260503202234 15 178 1.6 3.2 0.00 0.00 0.00 32 1011.4
20260503201732 14 149 1.6 1.6 0.00 0.00 0.00 33 1011.3
20260503201230 13 135 1.6 3.2 0.00 0.00 0.00 34 1011.2
20260503200726 15 140 1.6 1.6 0.00 0.00 0.00 32 1011.4
20260503200223 13 139 1.6 1.6 0.00 0.00 0.00 34 1011.5
20260503195719 13 165 1.6 3.2 0.00 0.00 0.00 34 1011.4
20260503195216 14 281 1.6 4.8 0.00 0.00 0.00 34 1011.6
20260503194714 15 212 3.2 3.2 0.00 0.00 0.00 32 1011.5
20260503194209 15 184 1.6 3.2 0.00 0.00 0.00 32 1011.2
20260503193706 15 125 3.2 4.8 0.00 0.00 0.00 31 1011.5
20260503193202 15 165 1.6 3.2 0.00 0.00 0.00 32 1011.5
20260503192657 15 206 4.8 4.8 0.00 0.00 0.00 32 1011.9
20260503192153 15 91 1.6 3.2 0.00 0.00 0.00 32 1011.8
20260503191650 15 141 1.6 1.6 0.00 0.00 0.00 32 1011.6
20260503191147 14 191 3.2 3.2 0.00 0.00 0.00 33 1012.0
20260503190644 14 48 3.2 3.2 0.00 0.00 0.00 34 1011.9
20260503190141 14 158 3.2 3.2 0.00 0.00 0.00 33 1012.0
20260503185637 13 245 4.8 8.0 0.00 0.00 0.00 35 1012.1
20260503185132 13 140 1.6 3.2 0.00 0.00 0.00 35 1011.9
20260503184628 13 88 6.4 9.7 0.00 0.00 0.00 35 1011.7
20260503184125 13 144 1.6 3.2 0.00 0.00 0.00 36 1012.1
20260503183621 13 115 4.8 8.0 0.00 0.00 0.00 34 1011.9
20260503183118 13 159 3.2 4.8 0.00 0.00 0.00 36 1012.1
20260503182617 14 217 1.6 3.2 0.00 0.00 0.00 34 1012.0
20260503182115 13 186 1.6 1.6 0.00 0.00 0.00 39 1012.1
20260503181611 12 119 3.2 3.2 0.00 0.00 0.00 37 1011.9
20260503181108 13 136 1.6 3.2 0.00 0.00 0.00 38 1011.9
20260503180605 13 195 3.2 4.8 0.00 0.00 0.00 36 1012.0
20260503180103 12 253 4.8 8.0 0.00 0.00 0.00 36 1012.1
20260503175559 12 257 4.8 4.8 0.00 0.00 0.00 37 1012.3
20260503175057 13 194 4.8 8.0 0.00 0.00 0.00 36 1012.0
20260503174554 13 145 3.2 3.2 0.00 0.00 0.00 37 1012.3
20260503174050 12 138 0.0 0.0 0.00 0.00 0.00 39 1012.5
20260503173545 12 192 1.6 1.6 0.00 0.00 0.00 38 1012.3
20260503173042 12 242 4.8 8.0 0.00 0.00 0.00 38 1012.4
20260503172539 12 162 3.2 3.2 0.00 0.00 0.00 43 1012.6
20260503172036 11 154 0.0 1.6 0.00 0.00 0.00 45 1012.6
20260503171533 11 164 1.6 1.6 0.00 0.00 0.00 44 1012.7
20260503171030 11 156 1.6 1.6 0.00 0.00 0.00 44 1012.7
20260503170526 11 157 1.6 1.6 0.00 0.00 0.00 43 1012.7
20260503150919 8 239 8.0 11.3 0.00 0.00 0.00 49 1013.1
20260503150415 8 140 4.8 4.8 0.00 0.00 0.00 47 1013.3
20260503131308 8 157 3.2 3.2 0.00 0.00 0.00 58 1013.0
20260503130806 7 122 0.0 0.0 0.00 0.00 0.00 57 1013.2
20260503130303 7 217 1.6 3.2 0.00 0.00 0.00 57 1012.9
20260503110657 5 137 0.0 0.0 0.00 0.00 0.00 65 1012.2
20260503110154 5 133 0.0 0.0 0.00 0.00 0.00 65 1012.3
20260503100121 5 146 0.0 1.6 0.00 0.00 0.00 65 1011.7
20260503081510 6 150 1.6 1.6 0.00 0.00 0.00 59 1011.6
20260503081007 6 119 0.0 1.6 0.00 0.00 0.00 58 1011.8
20260503080503 6 93 1.6 1.6 0.00 0.00 0.00 58 1011.6
20260503072940 6 121 0.0 1.6 0.00 0.00 0.00 58 1011.5
20260503072437 6 131 0.0 0.0 0.00 0.00 0.00 58 1011.3
20260503071934 6 149 0.0 0.0 0.00 0.00 0.00 58 1011.5
20260503071431 6 173 1.6 1.6 0.00 0.00 0.00 56 1011.5
20260503070927 6 168 1.6 3.2 0.00 0.00 0.00 57 1011.4
20260503070424 6 140 0.0 1.6 0.00 0.00 0.00 58 1011.6
20260503054838 7 136 0.0 0.0 0.00 0.00 0.00 54 1011.7
20260503054334 7 122 0.0 0.0 0.00 0.00 0.00 51 1011.9
20260503053832 7 192 3.2 3.2 0.00 0.00 0.00 52 1011.9
20260503053330 7 151 0.0 1.6 0.00 0.00 0.00 52 1011.8
20260503052826 7 59 1.6 3.2 0.00 0.00 0.00 52 1012.0
20260503052323 8 135 0.0 0.0 0.00 0.00 0.00 51 1011.8
20260503051819 8 160 1.6 1.6 0.00 0.00 0.00 52 1011.9
20260503051315 8 139 0.0 0.0 0.00 0.00 0.00 52 1012.1
20260503050812 8 119 0.0 0.0 0.00 0.00 0.00 51 1012.1
20260503050309 8 143 0.0 0.0 0.00 0.00 0.00 53 1011.9
20260503045807 8 140 0.0 0.0 0.00 0.00 0.00 52 1011.9
20260503045305 8 119 0.0 1.6 0.00 0.00 0.00 52 1012.1
20260503044800 8 136 0.0 0.0 0.00 0.00 0.00 52 1012.0
20260503044257 8 136 0.0 0.0 0.00 0.00 0.00 50 1012.0
20260503043755 8 116 0.0 0.0 0.00 0.00 0.00 50 1012.3
20260503043252 8 45 0.0 1.6 0.00 0.00 0.00 50 1012.3
20260503042747 8 129 0.0 0.0 0.00 0.00 0.00 51 1012.4
20260503042244 8 128 0.0 0.0 0.00 0.00 0.00 50 1012.3
20260503041740 8 139 0.0 0.0 0.00 0.00 0.00 50 1012.2
20260503041238 8 175 1.6 1.6 0.00 0.00 0.00 50 1012.5
20260503040736 8 129 0.0 0.0 0.00 0.00 0.00 51 1012.3
20260503040233 8 145 0.0 0.0 0.00 0.00 0.00 50 1012.3
20260503035729 8 98 1.6 1.6 0.00 0.00 0.00 49 1012.2
20260503035227 8 120 0.0 0.0 0.00 0.00 0.00 50 1012.3
20260503034724 8 122 0.0 0.0 0.00 0.00 0.00 48 1012.0
20260503034221 8 151 1.6 1.6 0.00 0.00 0.00 49 1012.3
20260503033719 8 130 0.0 0.0 0.00 0.00 0.00 49 1012.1